Year,Month,Day,Hour,Minute,Value (Times are PST for windspeed in km/hr)
2022,05,13,00,00,4.10
2022,05,13,00,01,1.70
2022,05,13,00,02,7.90
2022,05,13,00,03,5.70
2022,05,13,00,04,7.50
2022,05,13,00,05,4.10
2022,05,13,00,06,4.50
2022,05,13,00,07,4.00
2022,05,13,00,08,6.30
2022,05,13,00,09,1.70
2022,05,13,00,10,3.60
2022,05,13,00,11,4.10
2022,05,13,00,12,3.80
2022,05,13,00,13,4.90
2022,05,13,00,14,7.90
2022,05,13,00,15,5.10
2022,05,13,00,16,1.70
2022,05,13,00,17,5.10
2022,05,13,00,18,1.00
2022,05,13,00,19,3.40
2022,05,13,00,20,2.10
2022,05,13,00,21,6.20
2022,05,13,00,22,6.00
2022,05,13,00,23,2.70
2022,05,13,00,24,4.80
2022,05,13,00,25,5.10
2022,05,13,00,26,8.50
2022,05,13,00,27,1.60
2022,05,13,00,28,3.70
2022,05,13,00,29,3.70
2022,05,13,00,30,1.60
2022,05,13,00,31,2.30
2022,05,13,00,32,3.00
2022,05,13,00,33,4.00
2022,05,13,00,34,3.00
2022,05,13,00,35,2.90
2022,05,13,00,36,0.90
2022,05,13,00,37,4.00
2022,05,13,00,38,5.90
2022,05,13,00,39,5.10
2022,05,13,00,40,6.10
2022,05,13,00,41,7.90
2022,05,13,00,42,4.90
2022,05,13,00,43,4.30
2022,05,13,00,44,5.20
2022,05,13,00,45,3.90
2022,05,13,00,46,5.50
2022,05,13,00,47,4.00
2022,05,13,00,48,5.00
2022,05,13,00,49,5.20
2022,05,13,00,50,3.90
2022,05,13,00,51,6.60
2022,05,13,00,52,5.20
2022,05,13,00,53,6.60
2022,05,13,00,54,5.10
2022,05,13,00,55,5.10
2022,05,13,00,56,4.50
2022,05,13,00,57,3.30
2022,05,13,00,58,6.60
2022,05,13,00,59,5.50
2022,05,13,01,00,4.90
2022,05,13,01,01,3.20
2022,05,13,01,02,5.50
2022,05,13,01,03,3.90
2022,05,13,01,04,3.90
2022,05,13,01,05,5.20
2022,05,13,01,06,3.70
2022,05,13,01,07,4.30
2022,05,13,01,08,6.90
2022,05,13,01,09,5.10
2022,05,13,01,10,4.50
2022,05,13,01,11,4.50
2022,05,13,01,12,4.80
2022,05,13,01,13,6.70
2022,05,13,01,14,7.50
2022,05,13,01,15,4.60
2022,05,13,01,16,3.80
2022,05,13,01,17,8.20
2022,05,13,01,18,4.90
2022,05,13,01,19,1.90
2022,05,13,01,20,4.10
2022,05,13,01,21,2.50
2022,05,13,01,22,5.10
2022,05,13,01,23,6.70
2022,05,13,01,24,4.80
2022,05,13,01,25,4.50
2022,05,13,01,26,3.20
2022,05,13,01,27,8.10
2022,05,13,01,28,5.30
2022,05,13,01,29,4.50
2022,05,13,01,30,7.30
2022,05,13,01,31,4.50
2022,05,13,01,32,9.70
2022,05,13,01,33,9.10
2022,05,13,01,34,8.60
2022,05,13,01,35,7.00
2022,05,13,01,36,5.30
2022,05,13,01,37,5.70
2022,05,13,01,38,5.40
2022,05,13,01,39,7.10
2022,05,13,01,40,2.80
2022,05,13,01,41,3.50
2022,05,13,01,42,0.90
2022,05,13,01,43,3.30
2022,05,13,01,44,3.70
2022,05,13,01,45,1.00
2022,05,13,01,46,3.10
2022,05,13,01,47,1.50
2022,05,13,01,48,0.10
2022,05,13,01,49,1.90
2022,05,13,01,50,1.40
2022,05,13,01,51,1.70
2022,05,13,01,52,0.40
2022,05,13,01,53,0.50
2022,05,13,01,54,0.70
2022,05,13,01,55,2.10
2022,05,13,01,56,0.60
2022,05,13,01,57,0.80
2022,05,13,01,58,1.10
2022,05,13,01,59,1.70
2022,05,13,02,00,0.70
2022,05,13,02,01,1.50
2022,05,13,02,02,0.10
2022,05,13,02,03,0.00
2022,05,13,02,04,0.40
2022,05,13,02,05,2.40
2022,05,13,02,06,1.00
2022,05,13,02,07,1.00
2022,05,13,02,08,0.30
2022,05,13,02,09,2.70
2022,05,13,02,10,1.60
2022,05,13,02,11,5.60
2022,05,13,02,12,2.80
2022,05,13,02,13,2.40
2022,05,13,02,14,0.70
2022,05,13,02,15,0.50
2022,05,13,02,16,3.40
2022,05,13,02,17,2.80
2022,05,13,02,18,0.40
2022,05,13,02,19,2.30
2022,05,13,02,20,2.00
2022,05,13,02,21,4.00
2022,05,13,02,22,4.80
2022,05,13,02,23,2.90
2022,05,13,02,24,1.20
2022,05,13,02,25,0.80
2022,05,13,02,26,1.30
2022,05,13,02,27,0.10
2022,05,13,02,28,2.70
2022,05,13,02,29,1.50
2022,05,13,02,30,0.10
2022,05,13,02,31,1.30
2022,05,13,02,32,4.80
2022,05,13,02,33,1.70
2022,05,13,02,34,1.00
2022,05,13,02,35,0.10
2022,05,13,02,36,0.00
2022,05,13,02,37,0.70
2022,05,13,02,38,0.40
2022,05,13,02,39,1.00
2022,05,13,02,40,1.30
2022,05,13,02,41,0.70
2022,05,13,02,42,1.10
2022,05,13,02,43,0.20
2022,05,13,02,44,0.10
2022,05,13,02,45,0.80
2022,05,13,02,46,0.30
2022,05,13,02,47,0.90
2022,05,13,02,48,1.00
2022,05,13,02,49,0.40
2022,05,13,02,50,0.80
2022,05,13,02,51,2.00
2022,05,13,02,52,1.60
2022,05,13,02,53,3.90
2022,05,13,02,54,2.50
2022,05,13,02,55,4.40
2022,05,13,02,56,1.60
2022,05,13,02,57,1.20
2022,05,13,02,58,3.70
2022,05,13,02,59,2.90
2022,05,13,03,00,2.60
2022,05,13,03,01,1.60
2022,05,13,03,02,3.20
2022,05,13,03,03,3.00
2022,05,13,03,04,2.50
2022,05,13,03,05,2.40
2022,05,13,03,06,3.00
2022,05,13,03,07,2.40
2022,05,13,03,08,3.20
2022,05,13,03,09,2.60
2022,05,13,03,10,3.10
2022,05,13,03,11,2.80
2022,05,13,03,12,1.60
2022,05,13,03,13,1.40
2022,05,13,03,14,1.40
2022,05,13,03,15,2.60
2022,05,13,03,16,1.50
2022,05,13,03,17,3.40
2022,05,13,03,18,3.00
2022,05,13,03,19,2.30
2022,05,13,03,20,2.10
2022,05,13,03,21,3.80
2022,05,13,03,22,4.50
2022,05,13,03,23,1.70
2022,05,13,03,24,3.00
2022,05,13,03,25,4.20
2022,05,13,03,26,2.80
2022,05,13,03,27,2.50
2022,05,13,03,28,2.90
2022,05,13,03,29,3.70
2022,05,13,03,30,5.30
2022,05,13,03,31,4.80
2022,05,13,03,32,4.60
2022,05,13,03,33,4.90
2022,05,13,03,34,4.50
2022,05,13,03,35,4.30
2022,05,13,03,36,3.50
2022,05,13,03,37,4.30
2022,05,13,03,38,4.40
2022,05,13,03,39,3.60
2022,05,13,03,40,3.60
2022,05,13,03,41,2.70
2022,05,13,03,42,3.70
2022,05,13,03,43,3.40
2022,05,13,03,44,3.10
2022,05,13,03,45,4.60
2022,05,13,03,46,1.90
2022,05,13,03,47,2.00
2022,05,13,03,48,0.70
2022,05,13,03,49,1.50
2022,05,13,03,50,1.00
2022,05,13,03,51,3.00
2022,05,13,03,52,2.90
2022,05,13,03,53,2.90
2022,05,13,03,54,4.80
2022,05,13,03,55,2.60
2022,05,13,03,56,4.60
2022,05,13,03,57,4.30
2022,05,13,03,58,4.30
2022,05,13,03,59,0.70
2022,05,13,04,00,3.30
2022,05,13,04,01,1.90
2022,05,13,04,02,0.80
2022,05,13,04,03,1.40
2022,05,13,04,04,3.50
2022,05,13,04,05,4.60
2022,05,13,04,06,5.00
2022,05,13,04,07,1.20
2022,05,13,04,08,2.40
2022,05,13,04,09,2.10
2022,05,13,04,10,4.40
2022,05,13,04,11,3.60
2022,05,13,04,12,5.70
2022,05,13,04,13,5.80
2022,05,13,04,14,3.70
2022,05,13,04,15,1.10
2022,05,13,04,16,0.10
2022,05,13,04,17,2.00
2022,05,13,04,18,2.60
2022,05,13,04,19,0.20
2022,05,13,04,20,2.00
2022,05,13,04,21,3.60
2022,05,13,04,22,3.20
2022,05,13,04,23,2.60
2022,05,13,04,24,2.70
2022,05,13,04,25,3.50
2022,05,13,04,26,3.50
2022,05,13,04,27,1.90
2022,05,13,04,28,3.70
2022,05,13,04,29,3.50
2022,05,13,04,30,1.70
2022,05,13,04,31,3.50
2022,05,13,04,32,1.40
2022,05,13,04,33,0.60
2022,05,13,04,34,0.00
2022,05,13,04,35,0.20
2022,05,13,04,36,0.60
2022,05,13,04,37,2.20
2022,05,13,04,38,1.30
2022,05,13,04,39,0.30
2022,05,13,04,40,1.50
2022,05,13,04,41,0.30
2022,05,13,04,42,0.00
2022,05,13,04,43,0.10
2022,05,13,04,44,0.10
2022,05,13,04,45,0.00
2022,05,13,04,46,3.20
2022,05,13,04,47,1.00
2022,05,13,04,48,0.70
2022,05,13,04,49,0.70
2022,05,13,04,50,0.00
2022,05,13,04,51,0.10
2022,05,13,04,52,0.70
2022,05,13,04,53,1.20
2022,05,13,04,54,3.20
2022,05,13,04,55,1.00
2022,05,13,04,56,0.00
2022,05,13,04,57,1.40
2022,05,13,04,58,0.60
2022,05,13,04,59,0.70
2022,05,13,05,00,1.60
2022,05,13,05,01,2.20
2022,05,13,05,02,3.70
2022,05,13,05,03,4.00
2022,05,13,05,04,3.40
2022,05,13,05,05,3.60
2022,05,13,05,06,3.30
2022,05,13,05,07,0.60
2022,05,13,05,08,0.00
2022,05,13,05,09,0.00
2022,05,13,05,10,0.00
2022,05,13,05,11,0.00
2022,05,13,05,12,0.00
2022,05,13,05,13,0.00
2022,05,13,05,14,0.00
2022,05,13,05,15,0.00
2022,05,13,05,16,0.00
2022,05,13,05,17,0.00
2022,05,13,05,18,0.00
2022,05,13,05,19,0.00
2022,05,13,05,20,0.00
2022,05,13,05,21,0.00
2022,05,13,05,22,1.60
2022,05,13,05,23,2.40
2022,05,13,05,24,1.90
2022,05,13,05,25,1.70
2022,05,13,05,26,1.40
2022,05,13,05,27,2.30
2022,05,13,05,28,3.40
2022,05,13,05,29,2.40
2022,05,13,05,30,2.20
2022,05,13,05,31,1.00
2022,05,13,05,32,0.70
2022,05,13,05,33,0.70
2022,05,13,05,34,0.00
2022,05,13,05,35,0.00
2022,05,13,05,36,0.00
2022,05,13,05,37,0.00
2022,05,13,05,38,0.10
2022,05,13,05,39,1.10
2022,05,13,05,40,0.10
2022,05,13,05,41,0.00
2022,05,13,05,42,0.00
2022,05,13,05,43,0.00
2022,05,13,05,44,0.00
2022,05,13,05,45,0.00
2022,05,13,05,46,0.00
2022,05,13,05,47,0.00
2022,05,13,05,48,0.00
2022,05,13,05,49,0.00
2022,05,13,05,50,0.00
2022,05,13,05,51,0.00
2022,05,13,05,52,0.00
2022,05,13,05,53,0.00
2022,05,13,05,54,0.00
2022,05,13,05,55,0.00
2022,05,13,05,56,0.00
2022,05,13,05,57,0.00
2022,05,13,05,58,0.00
2022,05,13,05,59,1.80
2022,05,13,06,00,2.30
2022,05,13,06,01,1.30
2022,05,13,06,02,1.30
2022,05,13,06,03,0.90
2022,05,13,06,04,2.30
2022,05,13,06,05,3.40
2022,05,13,06,06,3.30
2022,05,13,06,07,1.00
2022,05,13,06,08,0.60
2022,05,13,06,09,0.00
2022,05,13,06,10,1.10
2022,05,13,06,11,6.00
2022,05,13,06,12,3.20
2022,05,13,06,13,3.60
2022,05,13,06,14,1.80
2022,05,13,06,15,3.20
2022,05,13,06,16,3.00
2022,05,13,06,17,2.70
2022,05,13,06,18,1.80
2022,05,13,06,19,1.10
2022,05,13,06,20,2.00
2022,05,13,06,21,0.20
2022,05,13,06,22,0.70
2022,05,13,06,23,1.70
2022,05,13,06,24,0.50
2022,05,13,06,25,0.00
2022,05,13,06,26,0.00
2022,05,13,06,27,0.00
2022,05,13,06,28,0.40
2022,05,13,06,29,0.00
2022,05,13,06,30,0.00
2022,05,13,06,31,0.40
2022,05,13,06,32,4.00
2022,05,13,06,33,2.50
2022,05,13,06,34,1.60
2022,05,13,06,35,1.30
2022,05,13,06,36,2.30
2022,05,13,06,37,0.90
2022,05,13,06,38,0.00
2022,05,13,06,39,0.00
2022,05,13,06,40,0.20
2022,05,13,06,41,0.70
2022,05,13,06,42,0.10
2022,05,13,06,43,1.00
2022,05,13,06,44,1.60
2022,05,13,06,45,2.30
2022,05,13,06,46,1.50
2022,05,13,06,47,1.20
2022,05,13,06,48,3.00
2022,05,13,06,49,3.70
2022,05,13,06,50,1.60
2022,05,13,06,51,1.00
2022,05,13,06,52,1.50
2022,05,13,06,53,1.50
2022,05,13,06,54,1.80
2022,05,13,06,55,2.10
2022,05,13,06,56,3.50
2022,05,13,06,57,5.30
2022,05,13,06,58,7.30
2022,05,13,06,59,3.70
2022,05,13,07,00,5.50
2022,05,13,07,01,6.70
2022,05,13,07,02,5.20
2022,05,13,07,03,4.00
2022,05,13,07,04,7.50
2022,05,13,07,05,5.10
2022,05,13,07,06,1.30
2022,05,13,07,07,3.30
2022,05,13,07,08,2.70
2022,05,13,07,09,2.30
2022,05,13,07,10,1.80
2022,05,13,07,11,3.20
2022,05,13,07,12,5.50
2022,05,13,07,13,2.40
2022,05,13,07,14,2.90
2022,05,13,07,15,3.30
2022,05,13,07,16,2.70
2022,05,13,07,17,2.00
2022,05,13,07,18,5.60
2022,05,13,07,19,1.70
2022,05,13,07,20,6.00
2022,05,13,07,21,2.70
2022,05,13,07,22,0.90
2022,05,13,07,23,0.00
2022,05,13,07,24,3.30
2022,05,13,07,25,7.90
2022,05,13,07,26,2.60
2022,05,13,07,27,7.00
2022,05,13,07,28,6.50
2022,05,13,07,29,0.60
2022,05,13,07,30,6.30
2022,05,13,07,31,8.90
2022,05,13,07,32,4.30
2022,05,13,07,33,5.20
2022,05,13,07,34,7.10
2022,05,13,07,35,7.00
2022,05,13,07,36,7.50
2022,05,13,07,37,4.90
2022,05,13,07,38,5.30
2022,05,13,07,39,5.80
2022,05,13,07,40,4.90
2022,05,13,07,41,5.80
2022,05,13,07,42,8.20
2022,05,13,07,43,8.20
2022,05,13,07,44,6.00
2022,05,13,07,45,5.80
2022,05,13,07,46,3.50
2022,05,13,07,47,3.00
2022,05,13,07,48,2.90
2022,05,13,07,49,7.30
2022,05,13,07,50,6.80
2022,05,13,07,51,6.70
2022,05,13,07,52,4.90
2022,05,13,07,53,2.90
2022,05,13,07,54,5.20
2022,05,13,07,55,4.40
2022,05,13,07,56,7.10
2022,05,13,07,57,6.70
2022,05,13,07,58,7.00
2022,05,13,07,59,6.20
2022,05,13,08,00,7.90
2022,05,13,08,01,4.20
2022,05,13,08,02,6.20
2022,05,13,08,03,5.30
2022,05,13,08,04,4.50
2022,05,13,08,05,4.80
2022,05,13,08,06,3.40
2022,05,13,08,07,1.10
2022,05,13,08,08,1.20
2022,05,13,08,09,2.70
2022,05,13,08,10,5.10
2022,05,13,08,11,7.10
2022,05,13,08,12,7.40
2022,05,13,08,13,5.40
2022,05,13,08,14,8.60
2022,05,13,08,15,5.70
2022,05,13,08,16,6.80
2022,05,13,08,17,8.10
2022,05,13,08,18,7.90
2022,05,13,08,19,6.30
2022,05,13,08,20,7.60
2022,05,13,08,21,7.40
2022,05,13,08,22,8.60
2022,05,13,08,23,10.30
2022,05,13,08,24,7.30
2022,05,13,08,25,9.20
2022,05,13,08,26,8.20
2022,05,13,08,27,7.40
2022,05,13,08,28,6.60
2022,05,13,08,29,6.10
2022,05,13,08,30,4.90
2022,05,13,08,31,7.10
2022,05,13,08,32,5.60
2022,05,13,08,33,10.40
2022,05,13,08,34,6.40
2022,05,13,08,35,10.90
2022,05,13,08,36,10.10
2022,05,13,08,37,11.40
2022,05,13,08,38,6.60
2022,05,13,08,39,10.80
2022,05,13,08,40,12.50
2022,05,13,08,41,12.00
2022,05,13,08,42,11.60
2022,05,13,08,43,13.50
2022,05,13,08,44,14.50
2022,05,13,08,45,11.50
2022,05,13,08,46,11.60
2022,05,13,08,47,14.10
2022,05,13,08,48,12.00
2022,05,13,08,49,14.90
2022,05,13,08,50,14.70
2022,05,13,08,51,14.80
2022,05,13,08,52,16.70
2022,05,13,08,53,17.30
2022,05,13,08,54,16.40
2022,05,13,08,55,15.50
2022,05,13,08,56,15.90
2022,05,13,08,57,14.60
2022,05,13,08,58,15.60
2022,05,13,08,59,18.30
2022,05,13,09,00,14.40
2022,05,13,09,01,15.30
2022,05,13,09,02,15.30
2022,05,13,09,03,20.40
2022,05,13,09,04,21.10
2022,05,13,09,05,23.70
2022,05,13,09,06,20.40
2022,05,13,09,07,21.40
2022,05,13,09,08,21.00
2022,05,13,09,09,21.70
2022,05,13,09,10,20.90
2022,05,13,09,11,19.10
2022,05,13,09,12,21.80
2022,05,13,09,13,19.40
2022,05,13,09,14,24.10
2022,05,13,09,15,20.90
2022,05,13,09,16,22.50
2022,05,13,09,17,22.70
2022,05,13,09,18,23.60
2022,05,13,09,19,23.70
2022,05,13,09,20,23.70
2022,05,13,09,21,22.80
2022,05,13,09,22,21.50
2022,05,13,09,23,22.20
2022,05,13,09,24,20.90
2022,05,13,09,25,21.50
2022,05,13,09,26,20.00
2022,05,13,09,27,17.80
2022,05,13,09,28,20.20
2022,05,13,09,29,19.10
2022,05,13,09,30,21.90
2022,05,13,09,31,20.90
2022,05,13,09,32,21.00
2022,05,13,09,33,17.90
2022,05,13,09,34,22.40
2022,05,13,09,35,20.20
2022,05,13,09,36,15.70
2022,05,13,09,37,17.20
2022,05,13,09,38,21.40
2022,05,13,09,39,22.50
2022,05,13,09,40,20.90
2022,05,13,09,41,18.80
2022,05,13,09,42,21.70
2022,05,13,09,43,19.40
2022,05,13,09,44,22.20
2022,05,13,09,45,20.70
2022,05,13,09,46,22.20
2022,05,13,09,47,22.00
2022,05,13,09,48,23.80
2022,05,13,09,49,22.90
2022,05,13,09,50,22.60
2022,05,13,09,51,23.70
2022,05,13,09,52,23.40
2022,05,13,09,53,26.90
2022,05,13,09,54,28.00
2022,05,13,09,55,25.90
2022,05,13,09,56,23.50
2022,05,13,09,57,23.30
2022,05,13,09,58,25.00
2022,05,13,09,59,24.10
2022,05,13,10,00,28.60
2022,05,13,10,01,28.50
2022,05,13,10,02,30.00
2022,05,13,10,03,28.70
2022,05,13,10,04,27.50
2022,05,13,10,05,28.70
2022,05,13,10,06,27.40
2022,05,13,10,07,27.30
2022,05,13,10,08,26.40
2022,05,13,10,09,27.40
2022,05,13,10,10,29.30
2022,05,13,10,11,30.30
2022,05,13,10,12,28.00
2022,05,13,10,13,25.40
2022,05,13,10,14,28.00
2022,05,13,10,15,30.40
2022,05,13,10,16,26.20
2022,05,13,10,17,23.80
2022,05,13,10,18,24.10
2022,05,13,10,19,24.90
2022,05,13,10,20,27.80
2022,05,13,10,21,25.60
2022,05,13,10,22,27.00
2022,05,13,10,23,25.80
2022,05,13,10,24,25.30
2022,05,13,10,25,24.50
2022,05,13,10,26,24.60
2022,05,13,10,27,25.90
2022,05,13,10,28,21.40
2022,05,13,10,29,23.90
2022,05,13,10,30,24.40
2022,05,13,10,31,25.90
2022,05,13,10,32,23.90
2022,05,13,10,33,24.20
2022,05,13,10,34,21.80
2022,05,13,10,35,24.60
2022,05,13,10,36,24.20
2022,05,13,10,37,24.00
2022,05,13,10,38,26.20
2022,05,13,10,39,27.60
2022,05,13,10,40,26.80
2022,05,13,10,41,26.90
2022,05,13,10,42,25.80
2022,05,13,10,43,24.70
2022,05,13,10,44,23.70
2022,05,13,10,45,25.80
2022,05,13,10,46,27.10
2022,05,13,10,47,27.10
2022,05,13,10,48,27.70
2022,05,13,10,49,25.70
2022,05,13,10,50,24.60
2022,05,13,10,51,26.10
2022,05,13,10,52,24.40
2022,05,13,10,53,21.90
2022,05,13,10,54,24.80
2022,05,13,10,55,25.00
2022,05,13,10,56,25.00
2022,05,13,10,57,22.90
2022,05,13,10,58,23.80
2022,05,13,10,59,22.70
2022,05,13,11,00,23.90
2022,05,13,11,01,23.70
2022,05,13,11,02,23.80
2022,05,13,11,03,25.50
2022,05,13,11,04,25.90
2022,05,13,11,05,20.00
2022,05,13,11,06,23.20
2022,05,13,11,07,22.40
2022,05,13,11,08,21.80
2022,05,13,11,09,22.10
2022,05,13,11,10,23.70
2022,05,13,11,11,21.30
2022,05,13,11,12,20.00
2022,05,13,11,13,22.50
2022,05,13,11,14,23.40
2022,05,13,11,15,24.30
2022,05,13,11,16,22.80
2022,05,13,11,17,23.50
2022,05,13,11,18,22.70
2022,05,13,11,19,21.90
2022,05,13,11,20,21.10
2022,05,13,11,21,23.50
2022,05,13,11,22,21.50
2022,05,13,11,23,20.70
2022,05,13,11,24,20.70
2022,05,13,11,25,19.80
2022,05,13,11,26,21.30
2022,05,13,11,27,21.10
2022,05,13,11,28,20.20
2022,05,13,11,29,20.40
2022,05,13,11,30,20.70
2022,05,13,11,31,20.60
2022,05,13,11,32,20.80
2022,05,13,11,33,20.90
2022,05,13,11,34,20.60
2022,05,13,11,35,21.20
2022,05,13,11,36,19.60
2022,05,13,11,37,18.00
2022,05,13,11,38,17.90
2022,05,13,11,39,17.80
2022,05,13,11,40,20.60
2022,05,13,11,41,19.30
2022,05,13,11,42,19.80
2022,05,13,11,43,17.60
2022,05,13,11,44,18.00
2022,05,13,11,45,16.30
2022,05,13,11,46,16.70
2022,05,13,11,47,18.00
2022,05,13,11,48,19.60
2022,05,13,11,49,16.00
2022,05,13,11,50,17.40
2022,05,13,11,51,16.90
2022,05,13,11,52,13.80
2022,05,13,11,53,16.40
2022,05,13,11,54,18.00
2022,05,13,11,55,16.50
2022,05,13,11,56,15.70
2022,05,13,11,57,16.70
2022,05,13,11,58,16.70
2022,05,13,11,59,18.40
2022,05,13,12,00,12.60
2022,05,13,12,01,14.50
2022,05,13,12,02,17.00
2022,05,13,12,03,16.40
2022,05,13,12,04,15.60
2022,05,13,12,05,14.80
2022,05,13,12,06,15.40
2022,05,13,12,07,16.00
2022,05,13,12,08,17.50
2022,05,13,12,09,15.40
2022,05,13,12,10,19.20
2022,05,13,12,11,21.90
2022,05,13,12,12,21.00
2022,05,13,12,13,19.30
2022,05,13,12,14,19.60
2022,05,13,12,15,21.00
2022,05,13,12,16,20.60
2022,05,13,12,17,19.00
2022,05,13,12,18,18.60
2022,05,13,12,19,21.30
2022,05,13,12,20,19.90
2022,05,13,12,21,20.30
2022,05,13,12,22,21.10
2022,05,13,12,23,19.80
2022,05,13,12,24,20.50
2022,05,13,12,25,20.40
2022,05,13,12,26,20.90
2022,05,13,12,27,21.00
2022,05,13,12,28,19.20
2022,05,13,12,29,19.50
2022,05,13,12,30,17.70
2022,05,13,12,31,17.30
2022,05,13,12,32,16.60
2022,05,13,12,33,16.90
2022,05,13,12,34,17.20
2022,05,13,12,35,19.10
2022,05,13,12,36,17.50
2022,05,13,12,37,16.60
2022,05,13,12,38,14.70
2022,05,13,12,39,15.60
2022,05,13,12,40,15.70
2022,05,13,12,41,17.00
2022,05,13,12,42,15.50
2022,05,13,12,43,14.90
2022,05,13,12,44,16.90
2022,05,13,12,45,13.70
2022,05,13,12,46,17.60
2022,05,13,12,47,15.00
2022,05,13,12,48,17.70
2022,05,13,12,49,13.40
2022,05,13,12,50,17.60
2022,05,13,12,51,14.40
2022,05,13,12,52,16.60
2022,05,13,12,53,16.80
2022,05,13,12,54,16.80
2022,05,13,12,55,16.80
2022,05,13,12,56,17.90
2022,05,13,12,57,16.30
2022,05,13,12,58,17.60
2022,05,13,12,59,18.20
2022,05,13,13,00,17.80
2022,05,13,13,01,17.90
2022,05,13,13,02,16.00
2022,05,13,13,03,17.50
2022,05,13,13,04,18.30
2022,05,13,13,05,19.00
2022,05,13,13,06,16.40
2022,05,13,13,07,17.10
2022,05,13,13,08,17.20
2022,05,13,13,09,17.30
2022,05,13,13,10,18.30
2022,05,13,13,11,17.30
2022,05,13,13,12,17.90
2022,05,13,13,13,17.10
2022,05,13,13,14,17.80
2022,05,13,13,15,16.40
2022,05,13,13,16,16.10
2022,05,13,13,17,17.20
2022,05,13,13,18,17.00
2022,05,13,13,19,19.80
2022,05,13,13,20,18.90
2022,05,13,13,21,16.90
2022,05,13,13,22,18.20
2022,05,13,13,23,20.30
2022,05,13,13,24,22.20
2022,05,13,13,25,22.70
2022,05,13,13,26,21.20
2022,05,13,13,27,19.80
2022,05,13,13,28,21.60
2022,05,13,13,29,20.70
2022,05,13,13,30,21.00
2022,05,13,13,31,20.40
2022,05,13,13,32,18.30
2022,05,13,13,33,19.00
2022,05,13,13,34,19.40
2022,05,13,13,35,19.60
2022,05,13,13,36,18.90
2022,05,13,13,37,14.90
2022,05,13,13,38,16.00
2022,05,13,13,39,18.80
2022,05,13,13,40,18.50
2022,05,13,13,41,21.20
2022,05,13,13,42,18.60
2022,05,13,13,43,17.50
2022,05,13,13,44,19.00
2022,05,13,13,45,19.00
2022,05,13,13,46,19.40
2022,05,13,13,47,17.90
2022,05,13,13,48,18.30
2022,05,13,13,49,19.20
2022,05,13,13,50,17.40
2022,05,13,13,51,16.20
2022,05,13,13,52,18.50
2022,05,13,13,53,17.80
2022,05,13,13,54,17.20
2022,05,13,13,55,16.20
2022,05,13,13,56,18.20
2022,05,13,13,57,14.70
2022,05,13,13,58,17.00
2022,05,13,13,59,16.90
2022,05,13,14,00,17.00
2022,05,13,14,01,13.50
2022,05,13,14,02,13.70
2022,05,13,14,03,17.00
2022,05,13,14,04,15.00
2022,05,13,14,05,14.20
2022,05,13,14,06,15.40
2022,05,13,14,07,15.50
2022,05,13,14,08,16.50
2022,05,13,14,09,17.00
2022,05,13,14,10,19.20
2022,05,13,14,11,19.20
2022,05,13,14,12,18.40
2022,05,13,14,13,18.80
2022,05,13,14,14,20.00
2022,05,13,14,15,18.50
2022,05,13,14,16,19.10
2022,05,13,14,17,18.80
2022,05,13,14,18,18.20
2022,05,13,14,19,17.90
2022,05,13,14,20,16.60
2022,05,13,14,21,19.70
2022,05,13,14,22,19.60
2022,05,13,14,23,19.90
2022,05,13,14,24,19.70
2022,05,13,14,25,20.10
2022,05,13,14,26,19.60
2022,05,13,14,27,19.00
2022,05,13,14,28,19.10
2022,05,13,14,29,18.80
2022,05,13,14,30,19.00
2022,05,13,14,31,20.60
2022,05,13,14,32,19.50
2022,05,13,14,33,19.80
2022,05,13,14,34,20.00
2022,05,13,14,35,20.30
2022,05,13,14,36,18.80
2022,05,13,14,37,17.90
2022,05,13,14,38,18.90
2022,05,13,14,39,19.10
2022,05,13,14,40,18.30
2022,05,13,14,41,18.10
2022,05,13,14,42,18.70
2022,05,13,14,43,19.20
2022,05,13,14,44,18.50
2022,05,13,14,45,18.70
2022,05,13,14,46,18.00
2022,05,13,14,47,18.60
2022,05,13,14,48,17.20
2022,05,13,14,49,15.90
2022,05,13,14,50,16.10
2022,05,13,14,51,16.60
2022,05,13,14,52,15.90
2022,05,13,14,53,15.30
2022,05,13,14,54,15.40
2022,05,13,14,55,16.10
2022,05,13,14,56,14.40
2022,05,13,14,57,13.20
2022,05,13,14,58,13.30
2022,05,13,14,59,11.70
2022,05,13,15,00,12.20
2022,05,13,15,01,11.30
2022,05,13,15,02,12.60
2022,05,13,15,03,10.20
2022,05,13,15,04,10.70
2022,05,13,15,05,11.40
2022,05,13,15,06,9.90
2022,05,13,15,07,12.30
2022,05,13,15,08,11.60
2022,05,13,15,09,12.20
2022,05,13,15,10,11.90
2022,05,13,15,11,10.50
2022,05,13,15,12,13.50
2022,05,13,15,13,14.80
2022,05,13,15,14,14.20
2022,05,13,15,15,12.30
2022,05,13,15,16,11.90
2022,05,13,15,17,12.80
2022,05,13,15,18,12.60
2022,05,13,15,19,12.60
2022,05,13,15,20,12.70
2022,05,13,15,21,12.10
2022,05,13,15,22,13.70
2022,05,13,15,23,14.20
2022,05,13,15,24,12.10
2022,05,13,15,25,12.40
2022,05,13,15,26,14.40
2022,05,13,15,27,14.50
2022,05,13,15,28,13.20
2022,05,13,15,29,14.50
2022,05,13,15,30,13.50
2022,05,13,15,31,12.90
2022,05,13,15,32,11.10
2022,05,13,15,33,14.50
2022,05,13,15,34,16.70
2022,05,13,15,35,16.30
2022,05,13,15,36,15.90
2022,05,13,15,37,13.50
2022,05,13,15,38,14.70
2022,05,13,15,39,14.40
2022,05,13,15,40,17.10
2022,05,13,15,41,17.10
2022,05,13,15,42,14.80
2022,05,13,15,43,13.50
2022,05,13,15,44,12.90
2022,05,13,15,45,14.40
2022,05,13,15,46,13.40
2022,05,13,15,47,12.90
2022,05,13,15,48,13.60
2022,05,13,15,49,15.90
2022,05,13,15,50,14.50
2022,05,13,15,51,15.40
2022,05,13,15,52,14.60
2022,05,13,15,53,14.70
2022,05,13,15,54,11.50
2022,05,13,15,55,11.00
2022,05,13,15,56,12.50
2022,05,13,15,57,11.80
2022,05,13,15,58,11.80
2022,05,13,15,59,12.30
2022,05,13,16,00,11.40
2022,05,13,16,01,12.30
2022,05,13,16,02,11.30
2022,05,13,16,03,10.70
2022,05,13,16,04,11.20
2022,05,13,16,05,12.90
2022,05,13,16,06,9.50
2022,05,13,16,07,10.10
2022,05,13,16,08,7.00
2022,05,13,16,09,4.50
2022,05,13,16,10,4.50
2022,05,13,16,11,4.70
2022,05,13,16,12,3.90
2022,05,13,16,13,3.20
2022,05,13,16,14,1.80
2022,05,13,16,15,0.90
2022,05,13,16,16,0.00
2022,05,13,16,17,0.30
2022,05,13,16,18,2.30
2022,05,13,16,19,3.00
2022,05,13,16,20,5.10
2022,05,13,16,21,6.60
2022,05,13,16,22,6.30
2022,05,13,16,23,6.00
2022,05,13,16,24,5.10
2022,05,13,16,25,4.30
2022,05,13,16,26,3.60
2022,05,13,16,27,2.90
2022,05,13,16,28,2.50
2022,05,13,16,29,3.20
2022,05,13,16,30,2.90
2022,05,13,16,31,3.00
2022,05,13,16,32,3.00
2022,05,13,16,33,3.20
2022,05,13,16,34,3.40
2022,05,13,16,35,3.20
2022,05,13,16,36,3.00
2022,05,13,16,37,3.20
2022,05,13,16,38,2.50
2022,05,13,16,39,2.50
2022,05,13,16,40,2.80
2022,05,13,16,41,3.00
2022,05,13,16,42,3.00
2022,05,13,16,43,3.60
2022,05,13,16,44,3.30
2022,05,13,16,45,3.30
2022,05,13,16,46,3.40
2022,05,13,16,47,3.70
2022,05,13,16,48,3.40
2022,05,13,16,49,3.40
2022,05,13,16,50,3.40
2022,05,13,16,51,3.60
2022,05,13,16,52,3.00
2022,05,13,16,53,2.60
2022,05,13,16,54,1.00
2022,05,13,16,55,1.60
2022,05,13,16,56,1.70
2022,05,13,16,57,2.30
2022,05,13,16,58,2.10
2022,05,13,16,59,2.00
2022,05,13,17,00,1.80
2022,05,13,17,01,1.90
2022,05,13,17,02,2.40
2022,05,13,17,03,2.10
2022,05,13,17,04,1.70
2022,05,13,17,05,2.00
2022,05,13,17,06,2.10
2022,05,13,17,07,1.60
2022,05,13,17,08,1.70
2022,05,13,17,09,1.80
2022,05,13,17,10,1.50
2022,05,13,17,11,1.70
2022,05,13,17,12,0.90
2022,05,13,17,13,2.20
2022,05,13,17,14,2.40
2022,05,13,17,15,2.60
2022,05,13,17,16,3.40
2022,05,13,17,17,2.40
2022,05,13,17,18,2.50
2022,05,13,17,19,2.60
2022,05,13,17,20,3.80
2022,05,13,17,21,3.90
2022,05,13,17,22,4.50
2022,05,13,17,23,4.50
2022,05,13,17,24,3.40
2022,05,13,17,25,2.90
2022,05,13,17,26,3.20
2022,05,13,17,27,3.80
2022,05,13,17,28,3.90
2022,05,13,17,29,3.80
2022,05,13,17,30,4.20
2022,05,13,17,31,3.90
2022,05,13,17,32,3.30
2022,05,13,17,33,2.90
2022,05,13,17,34,2.30
2022,05,13,17,35,1.80
2022,05,13,17,36,2.10
2022,05,13,17,37,1.50
2022,05,13,17,38,0.10
2022,05,13,17,39,0.00
2022,05,13,17,40,0.00
2022,05,13,17,41,0.00
2022,05,13,17,42,0.00
2022,05,13,17,43,0.00
2022,05,13,17,44,0.00
2022,05,13,17,45,0.00
2022,05,13,17,46,0.00